Hanford, WA
on Thursday, November 8, 2012

Thursday
Previous Day Next Day
Daily Summary
 ActualAverage (KMWH)Record (KMWH)
Temperature
Mean Temperature °F 40°F  
Max Temperature 50°F 50°F 63°F (1980)
Min Temperature 32°F 31°F 23°F (2005)
Degree Days
Heating Degree Days 24 25  
Month to date heating degree days 186  
Since 1 July heating degree days 823  
Cooling Degree Days 0 0  
Month to date cooling degree days 0  
Year to date cooling degree days 615  
Moisture
Dew Point 30°F   
Average Humidity 69    
Maximum Humidity 92    
Minimum Humidity 42    
Precipitation
Precipitation 0.00 in 0.04 in 0.45 in (2000)
Month to date precipitation 0.30  
Year to date precipitation 6.77  
Wind
Wind Speed 8 mph   
Max Wind Speed 17 mph   
Max Gust Speed mph   
Visibility 15 miles   
Events     

Key: T is trace of precipitation, MM is missing value
Source: NWS Daily Summary
Time(PST)TemperatureDew PointHumidity Pressure Visibility Wind DirectionWind SpeedGust SpeedPrecipitationEvents Conditions
12:50 AM 35.4°F 30.6°F 82% 29.93 in 15.0 miles NW 6.9 mph - N/A   Scattered Clouds
1:50 AM 35.8°F 30.9°F 82% 29.92 in 15.0 miles NNW 6.9 mph - N/A   Mostly Cloudy
2:50 AM 34.0°F 30.4°F 87% 29.91 in 15.0 miles WSW 3.5 mph - N/A   Scattered Clouds
3:50 AM 36.1°F 31.6°F 84% 29.89 in 15.0 miles WSW 4.6 mph - N/A   Scattered Clouds
4:50 AM 32.2°F 30.2°F 92% 29.88 in 15.0 miles West 8.1 mph - N/A   Partly Cloudy
5:50 AM 34.0°F 31.8°F 92% 29.87 in 15.0 miles WNW 8.1 mph - N/A   Scattered Clouds
6:50 AM 37.8°F 31.6°F 79% 29.85 in 15.0 miles NW 17.3 mph - N/A   Overcast
7:50 AM 38.8°F 30.4°F 72% 29.83 in 15.0 miles NW 16.1 mph - N/A   Mostly Cloudy
8:50 AM 41.5°F 31.3°F 67% 29.83 in 15.0 miles NW 12.7 mph - N/A   Mostly Cloudy
9:50 AM 45.0°F 31.5°F 59% 29.81 in 15.0 miles NW 9.2 mph - N/A   Scattered Clouds
10:50 AM 47.7°F 32.2°F 55% 29.81 in 15.0 miles NW 10.4 mph - N/A   Partly Cloudy
11:50 AM 49.5°F 30.4°F 48% 29.78 in 15.0 miles NW 11.5 mph - N/A   Scattered Clouds
12:50 PM 50.4°F 28.6°F 43% 29.76 in 15.0 miles NNW 10.4 mph - N/A   Partly Cloudy
1:50 PM 50.7°F 28.2°F 42% 29.75 in 15.0 miles NW 11.5 mph - N/A   Scattered Clouds
2:50 PM 48.7°F 27.7°F 44% 29.74 in 15.0 miles WNW 8.1 mph - N/A   Mostly Cloudy
3:50 PM 47.1°F 27.9°F 47% 29.75 in 15.0 miles West 6.9 mph - N/A   Partly Cloudy
4:50 PM 41.5°F 27.5°F 57% 29.75 in 15.0 miles WNW 5.8 mph - N/A   Partly Cloudy
5:50 PM 38.7°F 27.7°F 65% 29.75 in 15.0 miles West 5.8 mph - N/A   Scattered Clouds
6:50 PM 39.7°F 30.4°F 69% 29.75 in 15.0 miles NNE 4.6 mph - N/A   Partly Cloudy
9:50 PM 36.0°F 28.8°F 75% 29.79 in 15.0 miles SSW 3.5 mph - N/A   Mostly Cloudy
10:50 PM 34.0°F 28.8°F 81% 29.79 in 15.0 miles WNW 6.9 mph - N/A   Scattered Clouds
11:50 PM 33.4°F 29.8°F 87% 29.79 in 15.0 miles NNW 8.1 mph - N/A   Mostly Cloudy
Moon Phase
Nov. 08 Nov. 13 Nov. 20 Nov. 28 Dec. 06
Sunrise:06:51 AM (PST) Moon Rise:12:31 AM (PST)11/8
Sunset:04:32 PM (PST) Moon Set:01:34 PM (PST)11/8

Copyright © 2014 The Weather Underground, Inc.